• In Österreich
  • Länderverzeichnis
  • Für 7 Tage
  • Wassertemperatur
  • Satellitenkarten
  • Wetterkarte
  • News
  • Widgets
  • user-avatar
    Anmelden

    Stündliche Wetter Dobritsch

    Heute, 25 Mai, Freitag

    Zeit Temperatur Niederschläge Wind Luftdruck Luftfeuchtigkeit
    00:00 +17°C° 0 mm 2 m/S 737 mmHg 75%
    01:00 +16°C° 0 mm 2 m/S 737 mmHg 78%
    02:00 +16°C° 0 mm 2 m/S 737 mmHg 82%
    03:00 +16°C° 0,1 mm 2 m/S 737 mmHg 83%
    04:00 +16°C° 0,1 mm 2 m/S 737 mmHg 83%
    05:00 +16°C° 0,1 mm 2 m/S 737 mmHg 84%
    06:00 +18°C° 0,4 mm 3 m/S 737 mmHg 80%
    07:00 +19°C° 0,4 mm 3 m/S 737 mmHg 75%
    08:00 +21°C° 0 mm 4 m/S 738 mmHg 70%
    09:00 +22°C° 0,9 mm 4 m/S 738 mmHg 67%
    10:00 +23°C° 0,9 mm 5 m/S 738 mmHg 64%
    11:00 +25°C° 0,9 mm 5 m/S 738 mmHg 61%
    12:00 +25°C° 0,6 mm 5 m/S 738 mmHg 60%
    13:00 +26°C° 0,6 mm 5 m/S 738 mmHg 59%
    14:00 +26°C° 0,6 mm 5 m/S 738 mmHg 58%
    15:00 +26°C° 0,3 mm 5 m/S 738 mmHg 59%
    16:00 +25°C° 0,3 mm 4 m/S 738 mmHg 61%
    17:00 +25°C° 0,3 mm 4 m/S 738 mmHg 62%
    18:00 +22°C° 0 mm 4 m/S 738 mmHg 67%
    19:00 +20°C° 0 mm 3 m/S 738 mmHg 73%
    20:00 +18°C° 0 mm 3 m/S 738 mmHg 78%
    21:00 +18°C° 0 mm 2 m/S 738 mmHg 76%
    22:00 +18°C° 0 mm 2 m/S 739 mmHg 73%
    23:00 +17°C° 0 mm 2 m/S 739 mmHg 71%

    Morgen, 26 Mai, Samstag

    Zeit Temperatur Niederschläge Wind Luftdruck Luftfeuchtigkeit
    00:00 +17°C° 0 mm 3 m/S 739 mmHg 70%
    01:00 +17°C° 0 mm 3 m/S 739 mmHg 69%
    02:00 +17°C° 0 mm 3 m/S 739 mmHg 68%
    03:00 +17°C° 0 mm 4 m/S 739 mmHg 73%
    04:00 +17°C° 0 mm 4 m/S 739 mmHg 77%
    05:00 +15°C° 0 mm 4 m/S 739 mmHg 81%
    06:00 +17°C° 0 mm 5 m/S 739 mmHg 80%
    07:00 +19°C° 0 mm 6 m/S 740 mmHg 80%
    08:00 +20°C° 0 mm 6 m/S 740 mmHg 79%
    09:00 +21°C° 0,2 mm 6 m/S 740 mmHg 78%
    10:00 +21°C° 0,2 mm 7 m/S 741 mmHg 77%
    11:00 +21°C° 0,2 mm 7 m/S 741 mmHg 76%
    12:00 +22°C° 0,8 mm 7 m/S 741 mmHg 75%
    13:00 +22°C° 0,8 mm 7 m/S 741 mmHg 75%
    14:00 +22°C° 0,8 mm 7 m/S 741 mmHg 74%
    15:00 +22°C° 0,4 mm 7 m/S 741 mmHg 76%
    16:00 +21°C° 0,4 mm 7 m/S 741 mmHg 77%
    17:00 +20°C° 0,4 mm 7 m/S 741 mmHg 79%
    18:00 +19°C° 0 mm 6 m/S 741 mmHg 82%
    19:00 +17°C° 0 mm 5 m/S 741 mmHg 85%
    20:00 +16°C° 0 mm 5 m/S 742 mmHg 88%
    21:00 +16°C° 0 mm 5 m/S 742 mmHg 89%
    22:00 +15°C° 0 mm 5 m/S 742 mmHg 91%
    23:00 +15°C° 0 mm 5 m/S 742 mmHg 92%

    übermorgen, 27 Mai, Sonntag

    Zeit Temperatur Niederschläge Wind Luftdruck Luftfeuchtigkeit
    00:00 +15°C° 0 mm 5 m/S 742 mmHg 91%
    01:00 +15°C° 0 mm 5 m/S 742 mmHg 91%
    02:00 +15°C° 0 mm 5 m/S 742 mmHg 90%
    03:00 +15°C° 0 mm 5 m/S 742 mmHg 90%
    04:00 +15°C° 0 mm 5 m/S 742 mmHg 90%
    05:00 +14°C° 0 mm 5 m/S 742 mmHg 90%
    06:00 +15°C° 0 mm 6 m/S 742 mmHg 89%
    07:00 +15°C° 0 mm 6 m/S 742 mmHg 88%
    08:00 +15°C° 0 mm 6 m/S 743 mmHg 87%
    09:00 +15°C° 0 mm 6 m/S 743 mmHg 85%
    10:00 +16°C° 0 mm 6 m/S 743 mmHg 83%
    11:00 +16°C° 0 mm 6 m/S 744 mmHg 81%
    12:00 +17°C° 0 mm 6 m/S 743 mmHg 79%
    13:00 +19°C° 0 mm 6 m/S 743 mmHg 76%
    14:00 +19°C° 0 mm 6 m/S 743 mmHg 73%
    15:00 +19°C° 0 mm 6 m/S 743 mmHg 73%
    16:00 +19°C° 0 mm 6 m/S 743 mmHg 72%
    17:00 +19°C° 0 mm 5 m/S 742 mmHg 71%
    18:00 +17°C° 0 mm 5 m/S 743 mmHg 75%
    19:00 +15°C° 0 mm 4 m/S 743 mmHg 78%
    20:00 +14°C° 0 mm 4 m/S 743 mmHg 82%
    21:00 +13°C° 0 mm 3 m/S 743 mmHg 83%
    22:00 +13°C° 0 mm 3 m/S 743 mmHg 84%
    23:00 +12°C° 0 mm 3 m/S 743 mmHg 84%

    28 Mai, Montag

    Zeit Temperatur Niederschläge Wind Luftdruck Luftfeuchtigkeit
    00:00 +12°C° 0 mm 3 m/S 743 mmHg 84%
    01:00 +12°C° 0 mm 3 m/S 742 mmHg 84%
    02:00 +12°C° 0 mm 4 m/S 742 mmHg 83%
    03:00 +11°C° 0 mm 4 m/S 742 mmHg 84%
    04:00 +11°C° 0 mm 4 m/S 742 mmHg 84%
    05:00 +11°C° 0 mm 4 m/S 742 mmHg 85%
    06:00 +13°C° 0 mm 5 m/S 743 mmHg 80%
    07:00 +15°C° 0 mm 5 m/S 743 mmHg 75%
    08:00 +17°C° 0 mm 6 m/S 743 mmHg 70%
    09:00 +19°C° 0 mm 6 m/S 743 mmHg 67%
    10:00 +20°C° 0 mm 6 m/S 743 mmHg 65%
    11:00 +21°C° 0 mm 6 m/S 743 mmHg 62%
    12:00 +21°C° 0 mm 6 m/S 743 mmHg 61%
    13:00 +21°C° 0 mm 6 m/S 743 mmHg 60%
    14:00 +22°C° 0 mm 6 m/S 743 mmHg 59%
    15:00 +21°C° 0 mm 6 m/S 743 mmHg 61%
    16:00 +21°C° 0 mm 6 m/S 743 mmHg 62%
    17:00 +21°C° 0 mm 6 m/S 742 mmHg 63%
    18:00 +19°C° 0 mm 5 m/S 742 mmHg 68%
    19:00 +16°C° 0 mm 5 m/S 742 mmHg 74%
    20:00 +15°C° 0 mm 4 m/S 742 mmHg 79%
    21:00 +14°C° 0 mm 4 m/S 742 mmHg 79%
    22:00 +14°C° 0 mm 4 m/S 742 mmHg 79%
    23:00 +13°C° 0 mm 4 m/S 742 mmHg 79%

    29 Mai, Dienstag

    Zeit Temperatur Niederschläge Wind Luftdruck Luftfeuchtigkeit
    00:00 +13°C° 0 mm 4 m/S 742 mmHg 78%
    01:00 +13°C° 0 mm 4 m/S 742 mmHg 76%
    02:00 +13°C° 0 mm 4 m/S 741 mmHg 75%
    03:00 +13°C° 0 mm 5 m/S 741 mmHg 76%
    04:00 +13°C° 0 mm 5 m/S 741 mmHg 77%
    05:00 +13°C° 0 mm 5 m/S 741 mmHg 79%
    06:00 +14°C° 0 mm 5 m/S 741 mmHg 76%
    07:00 +16°C° 0 mm 6 m/S 741 mmHg 74%
    08:00 +18°C° 0 mm 7 m/S 742 mmHg 72%
    09:00 +18°C° 0 mm 7 m/S 742 mmHg 70%
    10:00 +20°C° 0 mm 7 m/S 741 mmHg 68%
    11:00 +21°C° 0 mm 7 m/S 741 mmHg 67%
    12:00 +20°C° 0,1 mm 7 m/S 741 mmHg 68%
    13:00 +20°C° 0,1 mm 7 m/S 741 mmHg 70%
    14:00 +20°C° 0,1 mm 6 m/S 741 mmHg 71%
    15:00 +20°C° 0,1 mm 6 m/S 741 mmHg 70%
    16:00 +20°C° 0,1 mm 6 m/S 741 mmHg 69%
    17:00 +20°C° 0,1 mm 6 m/S 741 mmHg 68%
    18:00 +19°C° 0 mm 6 m/S 740 mmHg 69%
    19:00 +17°C° 0 mm 5 m/S 740 mmHg 70%
    20:00 +16°C° 0 mm 5 m/S 740 mmHg 71%
    21:00 +16°C° 0 mm 5 m/S 740 mmHg 72%
    22:00 +16°C° 0 mm 5 m/S 740 mmHg 74%
    23:00 +15°C° 0 mm 5 m/S 740 mmHg 75%

    30 Mai, Mittwoch

    Zeit Temperatur Niederschläge Wind Luftdruck Luftfeuchtigkeit
    00:00 +15°C° 0 mm 5 m/S 739 mmHg 76%
    01:00 +15°C° 0 mm 4 m/S 739 mmHg 78%
    02:00 +14°C° 0 mm 4 m/S 739 mmHg 79%
    03:00 +14°C° 0 mm 4 m/S 739 mmHg 79%
    04:00 +14°C° 0 mm 5 m/S 739 mmHg 79%
    05:00 +14°C° 0 mm 5 m/S 739 mmHg 79%
    06:00 +15°C° 0 mm 5 m/S 739 mmHg 78%
    07:00 +16°C° 0 mm 6 m/S 739 mmHg 76%
    08:00 +17°C° 0 mm 6 m/S 739 mmHg 75%
    09:00 +17°C° 0 mm 6 m/S 739 mmHg 73%
    10:00 +19°C° 0 mm 6 m/S 739 mmHg 71%
    11:00 +19°C° 0 mm 6 m/S 739 mmHg 69%
    12:00 +20°C° 0 mm 6 m/S 739 mmHg 66%
    13:00 +20°C° 0 mm 5 m/S 738 mmHg 64%
    14:00 +21°C° 0 mm 5 m/S 738 mmHg 61%
    15:00 +21°C° 0 mm 5 m/S 738 mmHg 61%
    16:00 +21°C° 0 mm 5 m/S 738 mmHg 61%
    17:00 +21°C° 0 mm 5 m/S 737 mmHg 61%
    18:00 +20°C° 0 mm 4 m/S 737 mmHg 65%
    19:00 +18°C° 0 mm 4 m/S 737 mmHg 69%
    20:00 +17°C° 0 mm 3 m/S 737 mmHg 73%
    21:00 +16°C° 0 mm 3 m/S 737 mmHg 75%
    22:00 +14°C° 0 mm 3 m/S 736 mmHg 76%
    23:00 +14°C° 0 mm 3 m/S 736 mmHg 78%
    Mehr zeigen